AEHF-5 (USA 292)

Last updated on Thu Nov 21 2024 00:02:44 GMT+0000 (Coordinated Universal Time)

1 44481U 19051A 24325.64218275 -.00000233 00000+0 00000+0 0 9995 2 44481 2.3911 310.1598 0056815 9.5699 61.6693 1.00271763 19513
UTC large
Height (km)
Speed (km/s)
/
Latitude / Longitude
Inclination (degrees)
Orbital Period (minutes)
Azimuth
Elevation
Range (km)
Doppler Factor

Next 0 passes for location: London (51.5072 / 0.1276)

Sorry there are no passes over London.